Fort Polk, LA

7:51 AM CST on December 16, 2017 (GMT -0600)
Fort Polk

Weather History for KBKB - October, 2013

Change the Weather History Date:

Wednesday, October 23, 2013

  Actual Average (KPOE) Record (KPOE)
Temperature  
Mean Temperature 62 °F -  
Max Temperature 77 °F 74 °F 89 °F (2003)
Min Temperature 48 °F 55 °F 39 °F (1996)
Degree Days  
Heating Degree Days 2    
Growing Degree Days 12 (Base 50)    
Moisture  
Dew Point 49 °F    
Average Humidity 72    
Maximum Humidity 93    
Minimum Humidity 37    
Precipitation  
Precipitation 0.01 in - - ()
Sea Level Pressure  
Sea Level Pressure 30.17 in    
Wind  
Wind Speed 0 mph (NNE)    
Max Wind Speed 6 mph    
Max Gust Speed -    
Visibility 10 miles    
Events      
Averages and records for this station are not official NWS values.
T = Trace of Precipitation, MM = Missing Value Source: NWS Daily Summary

Daily Weather History Graph

Daily Weather History Graph

Search for Another Location

Airport or City:

Trip Planner

Search our weather history database for the weather conditions in past years. The results will help you decide how hot, cold, wet, or windy it might be!

Date:

Astronomy

Oct. 23, 2013 Rise Set
Actual Time 7:20 AM CDT 6:31 PM CDT
Civil Twilight 6:55 AM CDT 6:55 PM CDT
Nautical Twilight 6:27 AM CDT 7:24 PM CDT
Astronomical Twilight 5:59 AM CDT 7:52 PM CDT
Moon 10:12 PM CDT (10/23) 11:27 AM CDT (10/23)
Length of Visible Light 12h 00m
Length of Day
11h 11m
Waning Gibbous, 79% of the Moon is Illuminated
Oct 23
Waning Gibbous
Oct 26
Last Quarter
Nov 3
New
Nov 9
First Quarter
Nov 17
Full

Hourly Weather History & Observations

Time (CDT) Temp. Dew Point Humidity Pressure Visibility Wind Dir Wind Speed Gust Speed Precip Events Conditions
12:54 AM 48.9 °F 46.0 °F 90% 30.14 in 6.0 mi Calm Calm - N/A   Clear
1:54 AM 48.0 °F 45.0 °F 89% 30.15 in 7.0 mi Calm Calm - N/A   Clear
2:54 AM 48.0 °F 45.0 °F 89% 30.14 in 7.0 mi Calm Calm - N/A   Clear
4:54 AM 55.0 °F 48.0 °F 77% 30.12 in 10.0 mi Calm Calm - N/A   Clear
5:54 AM 53.1 °F 46.9 °F 80% 30.13 in 10.0 mi Calm Calm - 0.01 in   Clear
6:54 AM 50.0 °F 46.9 °F 89% 30.15 in 10.0 mi Calm Calm - N/A   Clear
7:54 AM 52.0 °F 46.9 °F 83% 30.18 in 10.0 mi Calm Calm - N/A   Clear
8:54 AM 61.0 °F 48.0 °F 62% 30.19 in 10.0 mi Variable 3.5 mph - N/A   Clear
9:54 AM 64.9 °F 48.9 °F 56% 30.21 in 10.0 mi NNE 5.8 mph - N/A   Clear
10:54 AM 69.1 °F 50.0 °F 51% 30.21 in 10.0 mi Variable 3.5 mph - N/A   Clear
11:54 AM 72.0 °F 50.0 °F 46% 30.20 in 10.0 mi Calm Calm - N/A   Clear
12:54 PM 73.9 °F 50.0 °F 43% 30.19 in 10.0 mi Calm Calm - N/A   Clear
1:54 PM 75.0 °F 48.0 °F 38% 30.16 in 10.0 mi Calm Calm - N/A   Clear
4:54 PM 77.0 °F 48.9 °F 37% 30.15 in 10.0 mi Calm Calm - N/A   Clear
5:54 PM 69.1 °F 54.0 °F 58% 30.16 in 10.0 mi Calm Calm - N/A   Clear
6:54 PM 63.0 °F 55.9 °F 78% 30.18 in 10.0 mi Calm Calm - N/A   Clear
7:54 PM 59.0 °F 54.0 °F 83% 30.19 in 10.0 mi Calm Calm - N/A   Clear
8:54 PM 57.0 °F 53.1 °F 87% 30.19 in 10.0 mi Calm Calm - N/A   Clear
9:54 PM 54.0 °F 52.0 °F 93% 30.20 in 10.0 mi Calm Calm - N/A   Clear
10:54 PM 54.0 °F 51.1 °F 90% 30.20 in 10.0 mi Calm Calm - N/A   Clear
11:54 PM 53.1 °F 50.0 °F 89% 30.19 in 10.0 mi Calm Calm - N/A   Clear